contact:dominique.lefevre@mio.osupytheas.fr, maurice.libes@osupytheas.fr, didier.mallarino@osupytheas.fr
Project:EMSO http://www.emso-fr.org/EMSO-France
Depth: 2436.0 m
Title:EMSO Ligure Ouest : Data MII capteur CSTAR
DateTime,Latitude,Longitude,Instrument_Serial,Reference_Counts,Signal_Counts,Corrected_Signal_raw_counts,Calculated_Beam_c_inverse_meters,Internal_thermistor_counts
DateTime,Latitude,Longitude,Instrument_Serial,Reference_Counts,Signal_Counts,Corrected_Signal_raw_counts,Calculated_Beam_c_inverse_meters,Internal_thermistor_counts
2023-03-03T00:02:35,42.805,6.029,CST-1368DR,4366,4796,11670,01.165,551
2023-03-03T00:05:36,42.805,6.029,CST-1368DR,4366,4800,11680,01.162,551
2023-03-03T00:08:38,42.805,6.029,CST-1368DR,4366,4794,11664,01.167,551
2023-03-03T00:11:39,42.805,6.029,CST-1368DR,4366,4797,11672,01.164,551
2023-03-03T00:14:41,42.805,6.029,CST-1368DR,4366,4775,11619,01.183,551
2023-03-03T00:17:42,42.805,6.029,CST-1368DR,4366,4777,11624,01.181,551
2023-03-03T00:20:44,42.805,6.029,CST-1368DR,4366,4774,11616,01.184,551
2023-03-03T00:23:46,42.805,6.029,CST-1368DR,4366,4769,11604,01.188,551
2023-03-03T00:26:47,42.805,6.029,CST-1368DR,4366,4772,11612,01.185,551
2023-03-03T00:29:49,42.805,6.029,CST-1368DR,4366,4771,11610,01.186,551
2023-03-03T00:32:50,42.805,6.029,CST-1368DR,4366,4775,11617,01.183,551
2023-03-03T00:35:52,42.805,6.029,CST-1368DR,4366,4772,11612,01.185,551
2023-03-03T00:38:53,42.805,6.029,CST-1368DR,4366,4776,11621,01.182,551
2023-03-03T00:41:55,42.805,6.029,CST-1368DR,4366,4771,11609,01.186,551
2023-03-03T00:44:57,42.805,6.029,CST-1368DR,4366,4768,11601,01.189,551
2023-03-03T00:47:58,42.805,6.029,CST-1368DR,4366,4772,11612,01.185,551
2023-03-03T00:51:00,42.805,6.029,CST-1368DR,4366,4775,11618,01.183,551
2023-03-03T00:54:01,42.805,6.029,CST-1368DR,4366,4773,11613,01.185,551
2023-03-03T00:57:03,42.805,6.029,CST-1368DR,4366,4781,11634,01.177,551
2023-03-03T01:00:04,42.805,6.029,CST-1368DR,4366,4777,11624,01.181,551
2023-03-03T01:03:06,42.805,6.029,CST-1368DR,4366,4772,11611,01.185,551
2023-03-03T01:06:08,42.805,6.029,CST-1368DR,4365,4772,11615,01.184,551
2023-03-03T01:09:09,42.805,6.029,CST-1368DR,4366,4779,11628,01.180,551
2023-03-03T01:12:11,42.805,6.029,CST-1368DR,4365,4780,11633,01.178,551
2023-03-03T01:15:12,42.805,6.029,CST-1368DR,4365,4769,11607,01.187,551
2023-03-03T01:18:14,42.805,6.029,CST-1368DR,4366,4777,11623,01.181,551
2023-03-03T01:21:16,42.805,6.029,CST-1368DR,4366,4784,11640,01.175,551
2023-03-03T01:24:17,42.805,6.029,CST-1368DR,4366,4783,11639,01.176,551
2023-03-03T01:27:19,42.805,6.029,CST-1368DR,4365,4767,11602,01.188,551
2023-03-03T01:30:20,42.805,6.029,CST-1368DR,4365,4771,11612,01.185,551
2023-03-03T01:33:22,42.805,6.029,CST-1368DR,4366,4774,11617,01.183,551
2023-03-03T01:36:23,42.805,6.029,CST-1368DR,4366,4772,11611,01.185,551
2023-03-03T01:39:25,42.805,6.029,CST-1368DR,4365,4774,11618,01.183,551
2023-03-03T01:42:27,42.805,6.029,CST-1368DR,4366,4780,11631,01.178,551
2023-03-03T01:45:28,42.805,6.029,CST-1368DR,4366,4782,11636,01.177,551
2023-03-03T01:48:30,42.805,6.029,CST-1368DR,4366,4780,11630,01.179,551
2023-03-03T01:51:31,42.805,6.029,CST-1368DR,4366,4782,11636,01.177,551
2023-03-03T01:54:33,42.805,6.029,CST-1368DR,4366,4778,11625,01.181,551
2023-03-03T01:57:34,42.805,6.029,CST-1368DR,4366,4786,11645,01.174,551
2023-03-03T02:00:36,42.805,6.029,CST-1368DR,4366,4780,11630,01.179,551
2023-03-03T02:03:38,42.805,6.029,CST-1368DR,4366,4785,11644,01.174,551
2023-03-03T02:06:39,42.805,6.029,CST-1368DR,4366,4784,11640,01.175,551
2023-03-03T02:09:41,42.805,6.029,CST-1368DR,4365,4781,11636,01.177,551
2023-03-03T02:12:42,42.805,6.029,CST-1368DR,4366,4784,11641,01.175,551
2023-03-03T02:15:44,42.805,6.029,CST-1368DR,4366,4781,11633,01.178,551
2023-03-03T02:18:46,42.805,6.029,CST-1368DR,4366,4781,11633,01.178,551
2023-03-03T02:21:47,42.805,6.029,CST-1368DR,4366,4777,11623,01.181,551
2023-03-03T02:24:49,42.805,6.029,CST-1368DR,4366,4777,11624,01.181,551
2023-03-03T02:27:50,42.805,6.029,CST-1368DR,4366,4781,11632,01.178,551
2023-03-03T02:30:52,42.805,6.029,CST-1368DR,4366,4781,11632,01.178,551
2023-03-03T02:33:53,42.805,6.029,CST-1368DR,4366,4777,11622,01.182,551
2023-03-03T02:36:55,42.805,6.029,CST-1368DR,4366,4777,11624,01.181,551
2023-03-03T02:39:57,42.805,6.029,CST-1368DR,4366,4778,11625,01.181,551
2023-03-03T02:42:58,42.805,6.029,CST-1368DR,4366,4780,11631,01.178,551
2023-03-03T02:46:00,42.805,6.029,CST-1368DR,4366,4777,11624,01.181,551
2023-03-03T02:49:01,42.805,6.029,CST-1368DR,4366,4776,11621,01.182,551
2023-03-03T02:52:03,42.805,6.029,CST-1368DR,4366,4776,11622,01.182,551
2023-03-03T02:55:04,42.805,6.029,CST-1368DR,4366,4771,11610,01.186,551
2023-03-03T02:58:06,42.805,6.029,CST-1368DR,4366,4771,11608,01.186,551
2023-03-03T03:01:08,42.805,6.029,CST-1368DR,4366,4780,11630,01.179,551
2023-03-03T03:04:09,42.805,6.029,CST-1368DR,4366,4775,11618,01.183,551
2023-03-03T03:07:11,42.805,6.029,CST-1368DR,4366,4774,11615,01.184,551
2023-03-03T03:10:12,42.805,6.029,CST-1368DR,4366,4777,11623,01.181,551
2023-03-03T03:13:14,42.805,6.029,CST-1368DR,4366,4783,11637,01.176,551
2023-03-03T03:16:16,42.805,6.029,CST-1368DR,4366,4779,11629,01.179,551
2023-03-03T03:19:17,42.805,6.029,CST-1368DR,4365,4780,11632,01.178,551
2023-03-03T03:22:19,42.805,6.029,CST-1368DR,4365,4777,11625,01.181,551
2023-03-03T03:25:20,42.805,6.029,CST-1368DR,4366,4779,11627,01.180,551
2023-03-03T03:28:22,42.805,6.029,CST-1368DR,4366,4778,11625,01.181,551
2023-03-03T03:31:23,42.805,6.029,CST-1368DR,4366,4776,11622,01.182,551
2023-03-03T03:34:25,42.805,6.029,CST-1368DR,4366,4779,11628,01.180,551
2023-03-03T03:37:27,42.805,6.029,CST-1368DR,4366,4777,11624,01.181,551
2023-03-03T03:40:28,42.805,6.029,CST-1368DR,4366,4775,11618,01.183,551
2023-03-03T03:43:30,42.805,6.029,CST-1368DR,4366,4791,11657,01.170,551
2023-03-03T03:46:31,42.805,6.029,CST-1368DR,4366,4782,11634,01.177,551
2023-03-03T03:49:33,42.805,6.029,CST-1368DR,4365,4776,11623,01.181,551
2023-03-03T03:52:34,42.805,6.029,CST-1368DR,4366,4777,11624,01.181,551
2023-03-03T03:55:36,42.805,6.029,CST-1368DR,4366,4777,11624,01.181,551
2023-03-03T03:58:38,42.805,6.029,CST-1368DR,4366,4779,11629,01.179,551
2023-03-03T04:01:39,42.805,6.029,CST-1368DR,4366,4779,11629,01.179,551
2023-03-03T04:04:41,42.805,6.029,CST-1368DR,4366,4779,11628,01.180,551
2023-03-03T04:07:42,42.805,6.029,CST-1368DR,4366,4779,11629,01.179,551
2023-03-03T04:10:44,42.805,6.029,CST-1368DR,4366,4785,11644,01.174,551
2023-03-03T04:13:46,42.805,6.029,CST-1368DR,4366,4779,11628,01.180,551
2023-03-03T04:16:47,42.805,6.029,CST-1368DR,4366,4776,11622,01.182,551
2023-03-03T04:19:49,42.805,6.029,CST-1368DR,4366,4776,11622,01.182,551
2023-03-03T04:22:50,42.805,6.029,CST-1368DR,4366,4780,11630,01.179,551
2023-03-03T04:25:52,42.805,6.029,CST-1368DR,4366,4776,11620,01.182,551
2023-03-03T04:28:53,42.805,6.029,CST-1368DR,4366,4775,11619,01.183,551
2023-03-03T04:31:55,42.805,6.029,CST-1368DR,4365,4774,11618,01.183,551
2023-03-03T04:34:57,42.805,6.029,CST-1368DR,4365,4779,11630,01.179,551
2023-03-03T04:37:58,42.805,6.029,CST-1368DR,4365,4769,11606,01.187,551
2023-03-03T04:41:00,42.805,6.029,CST-1368DR,4365,4771,11610,01.186,551
2023-03-03T04:44:01,42.805,6.029,CST-1368DR,4365,4773,11616,01.184,551
2023-03-03T04:47:03,42.805,6.029,CST-1368DR,4366,4778,11626,01.180,551
2023-03-03T04:50:04,42.805,6.029,CST-1368DR,4366,4774,11615,01.184,551
2023-03-03T04:53:06,42.805,6.029,CST-1368DR,4365,4770,11608,01.186,551
2023-03-03T04:56:08,42.805,6.029,CST-1368DR,4366,4780,11630,01.179,551
2023-03-03T04:59:09,42.805,6.029,CST-1368DR,4365,4777,11625,01.181,551
2023-03-03T05:02:11,42.805,6.029,CST-1368DR,4366,4780,11631,01.178,551
2023-03-03T05:05:12,42.805,6.029,CST-1368DR,4366,4776,11620,01.182,551
2023-03-03T05:08:14,42.805,6.029,CST-1368DR,4366,4775,11618,01.183,551
2023-03-03T05:11:16,42.805,6.029,CST-1368DR,4366,4776,11620,01.182,551
2023-03-03T05:14:17,42.805,6.029,CST-1368DR,4366,4777,11623,01.181,551
2023-03-03T05:17:19,42.805,6.029,CST-1368DR,4366,4781,11633,01.178,551
2023-03-03T05:20:20,42.805,6.029,CST-1368DR,4366,4783,11637,01.176,551
2023-03-03T05:23:22,42.805,6.029,CST-1368DR,4366,4783,11637,01.176,551
2023-03-03T05:26:23,42.805,6.029,CST-1368DR,4366,4780,11630,01.179,551
2023-03-03T05:29:25,42.805,6.029,CST-1368DR,4366,4788,11650,01.172,551
2023-03-03T05:32:27,42.805,6.029,CST-1368DR,4366,4784,11641,01.175,551
2023-03-03T05:35:28,42.805,6.029,CST-1368DR,4366,4781,11633,01.178,551
2023-03-03T05:38:30,42.805,6.029,CST-1368DR,4366,4782,11636,01.177,551
2023-03-03T05:41:31,42.805,6.029,CST-1368DR,4365,4781,11636,01.177,551
2023-03-03T05:44:33,42.805,6.029,CST-1368DR,4366,4786,11645,01.174,551
2023-03-03T05:47:34,42.805,6.029,CST-1368DR,4366,4783,11638,01.176,551
2023-03-03T05:50:36,42.805,6.029,CST-1368DR,4366,4784,11641,01.175,551
2023-03-03T05:53:38,42.805,6.029,CST-1368DR,4365,4780,11632,01.178,551
2023-03-03T05:56:39,42.805,6.029,CST-1368DR,4365,4787,11649,01.172,551
2023-03-03T05:59:41,42.805,6.029,CST-1368DR,4365,4782,11638,01.176,551
2023-03-03T06:02:42,42.805,6.029,CST-1368DR,4365,4782,11639,01.176,551
2023-03-03T06:05:44,42.805,6.029,CST-1368DR,4366,4790,11654,01.171,551
2023-03-03T06:08:46,42.805,6.029,CST-1368DR,4365,4780,11632,01.178,551
2023-03-03T06:11:47,42.805,6.029,CST-1368DR,4366,4786,11645,01.174,551
2023-03-03T06:14:49,42.805,6.029,CST-1368DR,4365,4779,11630,01.179,551
2023-03-03T06:17:50,42.805,6.029,CST-1368DR,4365,4780,11633,01.178,551
2023-03-03T06:20:52,42.805,6.029,CST-1368DR,4365,4782,11638,01.176,551
2023-03-03T06:23:53,42.805,6.029,CST-1368DR,4365,4776,11624,01.181,551
2023-03-03T06:26:55,42.805,6.029,CST-1368DR,4365,4780,11633,01.178,551
2023-03-03T06:29:57,42.805,6.029,CST-1368DR,4365,4783,11641,01.175,551
2023-03-03T06:32:58,42.805,6.029,CST-1368DR,4366,4788,11651,01.172,551
2023-03-03T06:36:00,42.805,6.029,CST-1368DR,4365,4780,11633,01.178,551
2023-03-03T06:39:01,42.805,6.029,CST-1368DR,4365,4783,11639,01.176,551
2023-03-03T06:42:03,42.805,6.029,CST-1368DR,4366,4790,11655,01.170,551
2023-03-03T06:45:04,42.805,6.029,CST-1368DR,4365,4793,11664,01.167,551
2023-03-03T06:48:06,42.805,6.029,CST-1368DR,4366,4790,11655,01.170,551
2023-03-03T06:51:08,42.805,6.029,CST-1368DR,4365,4788,11652,01.171,551
2023-03-03T06:54:09,42.805,6.029,CST-1368DR,4366,4791,11656,01.170,551
2023-03-03T06:57:11,42.805,6.029,CST-1368DR,4365,4793,11664,01.167,551
2023-03-03T07:00:12,42.805,6.029,CST-1368DR,4365,4788,11653,01.171,551
2023-03-03T07:03:14,42.805,6.029,CST-1368DR,4366,4791,11657,01.170,551
2023-03-03T07:06:15,42.805,6.029,CST-1368DR,4365,4791,11660,01.169,551
2023-03-03T07:09:17,42.805,6.029,CST-1368DR,4365,4790,11658,01.169,551
2023-03-03T07:12:19,42.805,6.029,CST-1368DR,4366,4791,11658,01.169,551
2023-03-03T07:15:20,42.805,6.029,CST-1368DR,4365,4793,11665,01.167,551
2023-03-03T07:18:22,42.805,6.029,CST-1368DR,4366,4791,11658,01.169,551
2023-03-03T07:21:23,42.805,6.029,CST-1368DR,4366,4794,11664,01.167,551
2023-03-03T07:24:25,42.805,6.029,CST-1368DR,4365,4794,11667,01.166,551
2023-03-03T07:27:27,42.805,6.029,CST-1368DR,4366,4795,11666,01.166,551
2023-03-03T07:30:28,42.805,6.029,CST-1368DR,4366,4793,11662,01.168,551
2023-03-03T07:33:30,42.805,6.029,CST-1368DR,4365,4796,11672,01.164,551
2023-03-03T07:36:31,42.805,6.029,CST-1368DR,4365,4793,11664,01.167,551
2023-03-03T07:39:33,42.805,6.029,CST-1368DR,4366,4795,11667,01.166,551
2023-03-03T07:42:34,42.805,6.029,CST-1368DR,4365,4795,11669,01.165,551
2023-03-03T07:45:36,42.805,6.029,CST-1368DR,4366,4796,11669,01.165,551
2023-03-03T07:48:38,42.805,6.029,CST-1368DR,4365,4793,11664,01.167,551
2023-03-03T07:51:39,42.805,6.029,CST-1368DR,4365,4791,11660,01.169,551
2023-03-03T07:54:41,42.805,6.029,CST-1368DR,4365,4790,11656,01.170,551
2023-03-03T07:57:42,42.805,6.029,CST-1368DR,4366,4794,11665,01.167,551
2023-03-03T08:00:44,42.805,6.029,CST-1368DR,4366,4789,11653,01.171,551
2023-03-03T08:03:45,42.805,6.029,CST-1368DR,4366,4795,11667,01.166,551
2023-03-03T08:06:47,42.805,6.029,CST-1368DR,4365,4794,11667,01.166,551
2023-03-03T08:09:49,42.805,6.029,CST-1368DR,4365,4791,11660,01.169,551
2023-03-03T08:12:50,42.805,6.029,CST-1368DR,4366,4793,11662,01.168,551
2023-03-03T08:15:52,42.805,6.029,CST-1368DR,4366,4793,11663,01.167,551
2023-03-03T08:18:53,42.805,6.029,CST-1368DR,4366,4790,11655,01.170,551
2023-03-03T08:21:55,42.805,6.029,CST-1368DR,4366,4793,11663,01.167,551
2023-03-03T08:24:57,42.805,6.029,CST-1368DR,4365,4791,11660,01.169,551
2023-03-03T08:27:58,42.805,6.029,CST-1368DR,4366,4799,11677,01.163,551
2023-03-03T08:31:00,42.805,6.029,CST-1368DR,4366,4797,11672,01.164,551
2023-03-03T08:34:01,42.805,6.029,CST-1368DR,4366,4794,11665,01.167,551
2023-03-03T08:37:03,42.805,6.029,CST-1368DR,4365,4796,11671,01.165,551
2023-03-03T08:40:04,42.805,6.029,CST-1368DR,4366,4801,11683,01.161,551
2023-03-03T08:43:06,42.805,6.029,CST-1368DR,4365,4794,11666,01.166,551
2023-03-03T08:46:08,42.805,6.029,CST-1368DR,4365,4792,11663,01.167,551
2023-03-03T08:49:09,42.805,6.029,CST-1368DR,4366,4805,11692,01.158,551
2023-03-03T08:52:11,42.805,6.029,CST-1368DR,4366,4803,11687,01.159,551
2023-03-03T08:55:12,42.805,6.029,CST-1368DR,4366,4804,11688,01.159,551
2023-03-03T08:58:14,42.805,6.029,CST-1368DR,4365,4799,11679,01.162,551
2023-03-03T09:01:15,42.805,6.029,CST-1368DR,4365,4804,11691,01.158,551
2023-03-03T09:04:17,42.805,6.029,CST-1368DR,4366,4804,11688,01.159,551
2023-03-03T09:07:19,42.805,6.029,CST-1368DR,4365,4798,11678,01.162,551
2023-03-03T09:10:20,42.805,6.029,CST-1368DR,4366,4797,11673,01.164,551
2023-03-03T09:13:22,42.805,6.029,CST-1368DR,4365,4799,11680,01.162,551
2023-03-03T09:16:23,42.805,6.029,CST-1368DR,4365,4804,11691,01.158,551
2023-03-03T09:19:25,42.805,6.029,CST-1368DR,4365,4799,11680,01.162,551
2023-03-03T09:22:26,42.805,6.029,CST-1368DR,4365,4801,11684,01.160,551
2023-03-03T09:25:28,42.805,6.029,CST-1368DR,4365,4803,11688,01.159,551
2023-03-03T09:28:30,42.805,6.029,CST-1368DR,4365,4807,11699,01.155,551
2023-03-03T09:31:31,42.805,6.029,CST-1368DR,4365,4806,11696,01.156,551
2023-03-03T09:34:33,42.805,6.029,CST-1368DR,4365,4805,11694,01.157,551
2023-03-03T09:37:34,42.805,6.029,CST-1368DR,4365,4806,11696,01.156,551
2023-03-03T09:40:36,42.805,6.029,CST-1368DR,4365,4802,11686,01.160,551
2023-03-03T09:43:38,42.805,6.029,CST-1368DR,4365,4803,11690,01.158,551
2023-03-03T09:46:39,42.805,6.029,CST-1368DR,4365,4804,11692,01.158,551
2023-03-03T09:49:41,42.805,6.029,CST-1368DR,4365,4798,11676,01.163,551
2023-03-03T09:52:42,42.805,6.029,CST-1368DR,4365,4797,11675,01.163,551
2023-03-03T09:55:44,42.805,6.029,CST-1368DR,4365,4795,11669,01.165,551
2023-03-03T09:58:45,42.805,6.029,CST-1368DR,4365,4800,11682,01.161,551
2023-03-03T10:01:47,42.805,6.029,CST-1368DR,4365,4800,11682,01.161,551
2023-03-03T10:04:49,42.805,6.029,CST-1368DR,4365,4801,11684,01.160,551
2023-03-03T10:07:50,42.805,6.029,CST-1368DR,4365,4798,11678,01.162,551
2023-03-03T10:10:52,42.805,6.029,CST-1368DR,4365,4802,11686,01.160,551
2023-03-03T10:13:53,42.805,6.029,CST-1368DR,4365,4798,11678,01.162,551
2023-03-03T10:16:55,42.805,6.029,CST-1368DR,4365,4802,11688,01.159,551
2023-03-03T10:19:56,42.805,6.029,CST-1368DR,4365,4803,11690,01.158,551
2023-03-03T10:22:58,42.805,6.029,CST-1368DR,4365,4800,11683,01.161,551
2023-03-03T10:26:00,42.805,6.029,CST-1368DR,4365,4798,11677,01.163,551
2023-03-03T10:29:01,42.805,6.029,CST-1368DR,4365,4799,11680,01.162,551
2023-03-03T10:32:03,42.805,6.029,CST-1368DR,4365,4801,11684,01.160,551
2023-03-03T10:35:04,42.805,6.029,CST-1368DR,4365,4800,11682,01.161,551
2023-03-03T10:38:06,42.805,6.029,CST-1368DR,4365,4801,11683,01.161,551
2023-03-03T10:41:07,42.805,6.029,CST-1368DR,4365,4798,11678,01.162,551
2023-03-03T10:44:09,42.805,6.029,CST-1368DR,4365,4803,11690,01.158,551
2023-03-03T10:47:11,42.805,6.029,CST-1368DR,4365,4798,11677,01.163,551
2023-03-03T10:50:12,42.805,6.029,CST-1368DR,4365,4800,11681,01.161,551
2023-03-03T10:53:14,42.805,6.029,CST-1368DR,4365,4798,11676,01.163,551
2023-03-03T10:56:15,42.805,6.029,CST-1368DR,4365,4801,11685,01.160,551
2023-03-03T10:59:17,42.805,6.029,CST-1368DR,4365,4800,11681,01.161,551
2023-03-03T11:02:19,42.805,6.029,CST-1368DR,4365,4798,11677,01.163,551
2023-03-03T11:05:20,42.805,6.029,CST-1368DR,4365,4796,11672,01.164,551
2023-03-03T11:08:22,42.805,6.029,CST-1368DR,4365,4798,11678,01.162,551
2023-03-03T11:11:23,42.805,6.029,CST-1368DR,4365,4799,11679,01.162,551
2023-03-03T11:14:25,42.805,6.029,CST-1368DR,4365,4794,11667,01.166,551
2023-03-03T11:17:26,42.805,6.029,CST-1368DR,4365,4795,11669,01.165,551
2023-03-03T11:20:28,42.805,6.029,CST-1368DR,4365,4796,11671,01.165,551
2023-03-03T11:23:30,42.805,6.029,CST-1368DR,4365,4801,11684,01.160,551
2023-03-03T11:26:31,42.805,6.029,CST-1368DR,4365,4797,11675,01.163,551
2023-03-03T11:29:33,42.805,6.029,CST-1368DR,4365,4797,11674,01.164,551
2023-03-03T11:32:34,42.805,6.029,CST-1368DR,4365,4796,11672,01.164,551
2023-03-03T11:35:36,42.805,6.029,CST-1368DR,4365,4796,11673,01.164,551
2023-03-03T11:38:37,42.805,6.029,CST-1368DR,4365,4795,11669,01.165,551
2023-03-03T11:41:39,42.805,6.029,CST-1368DR,4365,4800,11681,01.161,551
2023-03-03T11:44:41,42.805,6.029,CST-1368DR,4365,4789,11655,01.170,551
2023-03-03T11:47:42,42.805,6.029,CST-1368DR,4365,4795,11669,01.165,551
2023-03-03T11:50:44,42.805,6.029,CST-1368DR,4365,4797,11674,01.164,551
2023-03-03T11:53:45,42.805,6.029,CST-1368DR,4365,4799,11680,01.162,551
2023-03-03T11:56:47,42.805,6.029,CST-1368DR,4365,4800,11682,01.161,551
2023-03-03T11:59:49,42.805,6.029,CST-1368DR,4365,4798,11678,01.162,551
2023-03-03T12:02:50,42.805,6.029,CST-1368DR,4365,4805,11693,01.157,551
2023-03-03T12:05:52,42.805,6.029,CST-1368DR,4365,4808,11702,01.154,551
2023-03-03T12:08:53,42.805,6.029,CST-1368DR,4365,4798,11677,01.163,551
2023-03-03T12:11:55,42.805,6.029,CST-1368DR,4365,4797,11675,01.163,551
2023-03-03T12:14:56,42.805,6.029,CST-1368DR,4365,4802,11686,01.160,551
2023-03-03T12:17:58,42.805,6.029,CST-1368DR,4365,4797,11674,01.164,551
2023-03-03T12:21:00,42.805,6.029,CST-1368DR,4365,4807,11698,01.156,551
2023-03-03T12:24:01,42.805,6.029,CST-1368DR,4365,4800,11682,01.161,551
2023-03-03T12:27:03,42.805,6.029,CST-1368DR,4365,4800,11682,01.161,551
2023-03-03T12:30:04,42.805,6.029,CST-1368DR,4365,4800,11682,01.161,551
2023-03-03T12:33:06,42.805,6.029,CST-1368DR,4365,4801,11684,01.160,551
2023-03-03T12:36:07,42.805,6.029,CST-1368DR,4365,4800,11683,01.161,551
2023-03-03T12:39:09,42.805,6.029,CST-1368DR,4365,4799,11680,01.162,551
2023-03-03T12:42:11,42.805,6.029,CST-1368DR,4365,4799,11679,01.162,551
2023-03-03T12:45:12,42.805,6.029,CST-1368DR,4365,4807,11699,01.155,551
2023-03-03T12:48:14,42.805,6.029,CST-1368DR,4365,4807,11698,01.156,551
2023-03-03T12:51:15,42.805,6.029,CST-1368DR,4365,4800,11681,01.161,551
2023-03-03T12:54:17,42.805,6.029,CST-1368DR,4365,4807,11698,01.156,551
2023-03-03T12:57:19,42.805,6.029,CST-1368DR,4365,4806,11695,01.157,551
2023-03-03T13:00:20,42.805,6.029,CST-1368DR,4365,4807,11698,01.156,551
2023-03-03T13:03:22,42.805,6.029,CST-1368DR,4365,4798,11677,01.163,551
2023-03-03T13:06:23,42.805,6.029,CST-1368DR,4365,4798,11677,01.163,551
2023-03-03T13:09:25,42.805,6.029,CST-1368DR,4365,4807,11700,01.155,551
2023-03-03T13:12:26,42.805,6.029,CST-1368DR,4365,4799,11679,01.162,551
2023-03-03T13:15:28,42.805,6.029,CST-1368DR,4365,4801,11683,01.161,551
2023-03-03T13:18:30,42.805,6.029,CST-1368DR,4365,4794,11667,01.166,551
2023-03-03T13:21:31,42.805,6.029,CST-1368DR,4365,4806,11696,01.156,551
2023-03-03T13:24:33,42.805,6.029,CST-1368DR,4365,4803,11688,01.159,551
2023-03-03T13:27:34,42.805,6.029,CST-1368DR,4365,4793,11664,01.167,551
2023-03-03T13:30:36,42.805,6.029,CST-1368DR,4365,4802,11688,01.159,551
2023-03-03T13:33:37,42.805,6.029,CST-1368DR,4365,4809,11705,01.153,551
2023-03-03T13:36:39,42.805,6.029,CST-1368DR,4365,4805,11694,01.157,551
2023-03-03T13:39:41,42.805,6.029,CST-1368DR,4365,4806,11696,01.156,551
2023-03-03T13:42:42,42.805,6.029,CST-1368DR,4365,4806,11696,01.156,551
2023-03-03T13:45:44,42.805,6.029,CST-1368DR,4365,4811,11709,01.152,551
2023-03-03T13:48:45,42.805,6.029,CST-1368DR,4365,4800,11682,01.161,551
2023-03-03T13:51:47,42.805,6.029,CST-1368DR,4365,4803,11689,01.159,551
2023-03-03T13:54:49,42.805,6.029,CST-1368DR,4365,4804,11692,01.158,551
2023-03-03T13:57:50,42.805,6.029,CST-1368DR,4365,4811,11708,01.152,551
2023-03-03T14:00:52,42.805,6.029,CST-1368DR,4365,4805,11693,01.157,551
2023-03-03T14:03:53,42.805,6.029,CST-1368DR,4365,4799,11680,01.162,551
2023-03-03T14:06:55,42.805,6.029,CST-1368DR,4365,4802,11686,01.160,551
2023-03-03T14:09:56,42.805,6.029,CST-1368DR,4365,4808,11702,01.154,551
2023-03-03T14:12:58,42.805,6.029,CST-1368DR,4365,4806,11695,01.157,551
2023-03-03T14:16:00,42.805,6.029,CST-1368DR,4365,4805,11693,01.157,551
2023-03-03T14:19:01,42.805,6.029,CST-1368DR,4365,4807,11698,01.156,551
2023-03-03T14:22:03,42.805,6.029,CST-1368DR,4365,4811,11708,01.152,551
2023-03-03T14:25:04,42.805,6.029,CST-1368DR,4365,4813,11714,01.150,551
2023-03-03T14:28:06,42.805,6.029,CST-1368DR,4365,4807,11698,01.156,551
2023-03-03T14:31:07,42.805,6.029,CST-1368DR,4365,4808,11702,01.154,551
2023-03-03T14:34:09,42.805,6.029,CST-1368DR,4365,4808,11702,01.154,551
2023-03-03T14:37:11,42.805,6.029,CST-1368DR,4365,4806,11695,01.157,551
2023-03-03T14:40:12,42.805,6.029,CST-1368DR,4365,4808,11702,01.154,551
2023-03-03T14:43:14,42.805,6.029,CST-1368DR,4365,4807,11698,01.156,551
2023-03-03T14:46:15,42.805,6.029,CST-1368DR,4365,4806,11697,01.156,551
2023-03-03T14:49:17,42.805,6.029,CST-1368DR,4365,4811,11709,01.152,551
2023-03-03T14:52:18,42.805,6.029,CST-1368DR,4365,4807,11698,01.156,551
2023-03-03T14:55:20,42.805,6.029,CST-1368DR,4365,4800,11681,01.161,551
2023-03-03T14:58:22,42.805,6.029,CST-1368DR,4365,4804,11692,01.158,551
2023-03-03T15:01:23,42.805,6.029,CST-1368DR,4365,4804,11692,01.158,551
2023-03-03T15:04:25,42.805,6.029,CST-1368DR,4365,4808,11702,01.154,551
2023-03-03T15:07:26,42.805,6.029,CST-1368DR,4365,4811,11709,01.152,551
2023-03-03T15:10:28,42.805,6.029,CST-1368DR,4365,4808,11700,01.155,551
2023-03-03T15:13:30,42.805,6.029,CST-1368DR,4365,4808,11702,01.154,551
2023-03-03T15:16:31,42.805,6.029,CST-1368DR,4365,4807,11699,01.155,551
2023-03-03T15:19:33,42.805,6.029,CST-1368DR,4365,4807,11698,01.156,551
2023-03-03T15:22:34,42.805,6.029,CST-1368DR,4365,4808,11702,01.154,551
2023-03-03T15:25:36,42.805,6.029,CST-1368DR,4365,4808,11700,01.155,551
2023-03-03T15:28:37,42.805,6.029,CST-1368DR,4365,4803,11689,01.159,551
2023-03-03T15:31:39,42.805,6.029,CST-1368DR,4365,4803,11689,01.159,551
2023-03-03T15:34:41,42.805,6.029,CST-1368DR,4365,4802,11686,01.160,551
2023-03-03T15:37:42,42.805,6.029,CST-1368DR,4365,4804,11692,01.158,551
2023-03-03T15:40:44,42.805,6.029,CST-1368DR,4365,4808,11702,01.154,551
2023-03-03T15:43:45,42.805,6.029,CST-1368DR,4365,4803,11689,01.159,551
2023-03-03T15:46:47,42.805,6.029,CST-1368DR,4365,4808,11700,01.155,551
2023-03-03T15:49:48,42.805,6.029,CST-1368DR,4365,4805,11694,01.157,551
2023-03-03T15:52:50,42.805,6.029,CST-1368DR,4365,4798,11677,01.163,551
2023-03-03T15:55:52,42.805,6.029,CST-1368DR,4365,4801,11684,01.160,551
2023-03-03T15:58:53,42.805,6.029,CST-1368DR,4365,4806,11696,01.156,551
2023-03-03T16:01:55,42.805,6.029,CST-1368DR,4365,4808,11701,01.154,551
2023-03-03T16:04:56,42.805,6.029,CST-1368DR,4365,4808,11700,01.155,551
2023-03-03T16:07:58,42.805,6.029,CST-1368DR,4365,4801,11684,01.160,551
2023-03-03T16:11:00,42.805,6.029,CST-1368DR,4365,4807,11700,01.155,551
2023-03-03T16:14:01,42.805,6.029,CST-1368DR,4365,4808,11702,01.154,551
2023-03-03T16:17:03,42.805,6.029,CST-1368DR,4365,4806,11697,01.156,551
2023-03-03T16:20:04,42.805,6.029,CST-1368DR,4365,4806,11697,01.156,551
2023-03-03T16:23:06,42.805,6.029,CST-1368DR,4365,4806,11695,01.157,551
2023-03-03T16:26:07,42.805,6.029,CST-1368DR,4365,4801,11685,01.160,551
2023-03-03T16:29:09,42.805,6.029,CST-1368DR,4365,4801,11684,01.160,551
2023-03-03T16:32:11,42.805,6.029,CST-1368DR,4365,4807,11699,01.155,551
2023-03-03T16:35:12,42.805,6.029,CST-1368DR,4365,4807,11700,01.155,551
2023-03-03T16:38:14,42.805,6.029,CST-1368DR,4365,4798,11678,01.162,551